Location: Azul
(36.7830°S, 59.8500°W)
Time: 08:36:25
(UTC-03:00)

DOVE 4 - Pass Details

Date: 31 October 2021
Orbit: 588 x 799 km, 97.8° (Epoch: 07 December)

Event Time Altitude Azimuth Distance (km) Brightness Sun altitude
Exits shadow 01:02:03 20° 209° (SSW) 1,807 ? -38.9°
Drops below altitude 10° 01:03:41 10° 202° (SSW) 2,403 ? -38.8°
Sets 01:06:06 0° 197° (SSW) 3,334 ? -38.8°
